Regional Weather Roundup
Issued by NWS Sterling, VA

Home | Current Version | Previous Version | Text Only | Print | Product List | Glossary On
Versions: 1 2 3 4 5 6 7 8 9 10 11 12 13 14 15 16 17 18 19 20 21 22 23 24 25 26 27 28 29 30 31 32 33 34 35 36 37 38 39 40 41 42 43 44 45 46 47 48 49 50
610
ASUS41 KLWX 241710
RWRLWX

REGIONAL WEATHER ROUNDUP
NATIONAL WEATHER SERVICE BALTIMORE MD/WASHINGTON DC
100 PM EDT TUE MAY 24 2016

Note: "FAIR" indicates few or no clouds below 12,000 feet
with no significant weather and/or obstructions to visibility.
 TC=TEMPERATURE CELSIUS

 * =Non NWS site. Station does not report precipitation (e.g. rain,
    snow, etc.), thunder, or fog.

DCZ001-MDZ009-015-VAZ040>042-051-053>054-241800-
WASHINGTON METRO

CITY           SKY/WX    TMP DP  RH WIND       PRES   REMARKS
WASHINGTON NAT FAIR      79  54  41 NW9       30.02S
DULLES         FAIR      78  49  35 N10       30.03F
ANDREWS AFB    MOSUNNY   78  51  40 N10       30.00F
FT BELVOIR     FAIR      80  49  34 NW7G17    30.02S
QUANTICO       FAIR      79  49  34 N10       30.03S
COLLEGE PARK*  FAIR      77  52  41 W10       30.00F
LEESBURG*      FAIR      79  54  41 W12       30.04S
MANASSAS*      SUNNY     81  48  32 N10G20    30.03F

$$

MDZ006>007-011-014-241800-
BALTIMORE METRO

CITY           SKY/WX    TMP DP  RH WIND       PRES   REMARKS
BWI AIRPORT    PTSUNNY   78  51  38 W9        29.98F
MD SCIENCE CTR   N/A     80  45  28 MISG      29.98F
MARTIN STATE   MOSUNNY   81  54  39 NW8       29.99F
ANNAPOLIS      MOSUNNY   75  50  41 N5        29.99F
FORT MEADE*    SUNNY     77  52  41 N9        30.02F

$$

MDZ012-015-019>023-241800-
MARYLAND EASTERN SHORE

CITY           SKY/WX    TMP DP  RH WIND       PRES   REMARKS
OCEAN CITY     CLOUDY    71  57  61 NW9       29.99S
SALISBURY      CLOUDY    73  53  49 NW12      29.99S
BAY BRIDGE AP* MOSUNNY   75  52  43 NW6       30.00S
CAMBRIDGE*     SUNNY     72  52  49 NW7       30.00R
EASTON*        MOSUNNY   75  59  57 N8G18     30.04R

$$

MDZ017>025-241800-
SOUTHERN MARYLAND

CITY           SKY/WX    TMP DP  RH WIND       PRES   REMARKS
PATUXENT RIVER PTSUNNY   76  53  44 NW14      30.00F
ST INIGOES     SUNNY     74  60  61 W10       30.01S
LEONARDTOWN*   SUNNY     77  52  41 W7        30.02S

$$

MDZ003>005-241800-
NORTH CENTRAL MARYLAND

CITY           SKY/WX    TMP DP  RH WIND       PRES   REMARKS
FREDERICK*     SUNNY     79  57  47 W7        30.04F
HAGERSTOWN APT SUNNY     78  49  35 W8G18     30.02F
WESTMINSTER*   SUNNY     79  72  78 NW8       30.01F

$$

MDZ501>502-241800-
WESTERN MARYLAND

CITY           SKY/WX    TMP DP  RH WIND       PRES   REMARKS
OAKLAND*       NOT AVBL
CUMBERLAND*    SUNNY     77  45  31 W8        30.09S

$$

VAZ025>031-241800-
SHENANDOAH VALLEY

CITY           SKY/WX    TMP DP  RH WIND       PRES   REMARKS
WINCHESTER*    FAIR      77  50  38 W7G16     30.05F
FRONT ROYAL*   FAIR      77  54  44 N6        30.05S
LURAY*         FAIR      79  46  31 NW8       30.06F
NEW MARKET*    FAIR      78  51  39 N8        30.05F
STAUNTON*        N/A    N/A N/A N/A MISG        N/A
WAYNESBORO*    FAIR      75  48  37 NW9       30.10S

$$

WVZ021-048>050-054>055-241800-
EASTERN WEST VIRGINIA PANHANDLE

CITY           SKY/WX    TMP DP  RH WIND       PRES   REMARKS
MARTINSBURG    FAIR      79  50  36 NW8G18    30.03F
PETERSBURG*    FAIR      78  53  42 W12G18    30.09S

$$

VAZ036>039-050-241800-
CENTRAL FOOTHILLS

CITY           SKY/WX    TMP DP  RH WIND       PRES   REMARKS
CHARLOTTESVILL FAIR      80  51  36 CALM      30.06S
CULPEPER*      FAIR      79  52  38 N5        30.06S
ORANGE*        FAIR      81  54  39 NE3       30.07F
GORDONSVILLE*  FAIR      79  56  44 N6        30.05S
WARRENTON*     FAIR      81  43  26 NW7       30.05S

$$

VAZ055>057-241800-
NORTH AND CENTRAL PIEDMONT

CITY           SKY/WX    TMP DP  RH WIND       PRES   REMARKS
FREDERICKSBRG* FAIR      79  52  38 N14       30.03S
STAFFORD*      FAIR      79  48  33 NW14G20   30.08S

$$

NCZ024-NYZ072-PAZ021-071-VAZ022-071-241800-
OTHER REGIONAL OBSERVATIONS

CITY           SKY/WX    TMP DP  RH WIND       PRES   REMARKS
NEW YORK CITY  PTSUNNY   66  58  75 VRB3      29.95S
PHILADELPHIA   CLOUDY    76  52  43 SW16      29.95F
PITTSBURGH     MOSUNNY   77  47  34 W10       30.08F
ROANOKE        FAIR      77  52  41 W8        30.14F
RICHMOND       FAIR      79  55  43 NW10      30.04F
RALEIGH        MOSUNNY   79  55  43 VRB5      30.11F

$$

ANZ530>537-241800-
MARINE OBSERVATIONS

STATION/POSITION TIME  TEMP    WIND        PRES
                       AIR SEA DIR/SP/G
                 (UTC) (F)     (DEG/KT/KT) (MB)
THOMAS PT LIGHT  1700   70 62  110/  4/  4 1017.0F
BALT KEY BRIDGE  1600   73     310/  7/  8 1015.5R
COVE POINT       1600   69      20/  7/  9 1016.6R
LEWISETTA        1600   71 64  340/  9/ 13 1016.3R
SOLOMONS ISLAND  1600   73 62  290/  6/  9   N/A
PINEY POINT      1600          310/ 13/ 14   N/A

$$





USA.gov is the U.S. government's official web portal to all federal, state and local government web resources and services.